Weather History for Munising, MI

Change the Weather History Date:

Friday, May 3, 2013

  Actual Average (KISQ) Record (KISQ)
Temperature  
Mean Temperature 36 °F -  
Max Temperature 37 °F 54 °F 80 °F (1980)
Min Temperature 35 °F 34 °F 21 °F (1966)
Degree Days  
Heating Degree Days 29    
Moisture  
Dew Point 32 °F    
Average Humidity 83    
Maximum Humidity 86    
Minimum Humidity 76    
Precipitation  
Precipitation 0.09 in - - ()
Sea Level Pressure  
Sea Level Pressure 30.25 in    
Wind  
Wind Speed 16 mph (North)    
Max Wind Speed 18 mph    
Max Gust Speed -    
Averages and records for this station are not official NWS values.
T = Trace of Precipitation, MM = Missing Value Source: NWS Daily Summary

Daily Weather History Graph

Daily Weather History Graph

Search for Another Location

Airport:

Trip Planner

Search our weather history database for the weather conditions in past years. The results will help you decide how hot, cold, wet, or windy it might be!

Date:

Astronomy

May. 03, 2013 Rise Set
Actual Time 6:29 AM EDT 8:58 PM EDT
Civil Twilight 5:55 AM EDT 9:32 PM EDT
Nautical Twilight 5:13 AM EDT 10:15 PM EDT
Astronomical Twilight 4:24 AM EDT 11:03 PM EDT
Moon 3:15 AM EDT (5/3) 2:31 PM EDT (5/3)
Length of Visible Light 15h 37m
Length of Day
14h 29m
Last Quarter, 37% of the Moon is Illuminated
May 3
Last Quarter
May 9
New
May 18
First Quarter
May 25
Full
May 31
Last Quarter

Hourly Weather History & Observations

Time (EDT) Temp. Windchill Dew Point Humidity Pressure Visibility Wind Dir Wind Speed Gust Speed Precip Events Conditions
12:56 AM 35.1 °F 24.5 °F 30.9 °F 85% 30.31 in - North 18.4 mph - 0.06 in   Unknown
1:56 AM 35.1 °F 24.8 °F 30.9 °F 85% 30.30 in - North 17.3 mph - 0.01 in   Unknown
2:56 AM 35.1 °F 24.5 °F 30.9 °F 85% 30.29 in - North 18.4 mph - 0.01 in   Unknown
3:56 AM 35.1 °F 24.8 °F 30.9 °F 85% 30.28 in - North 17.3 mph - N/A   Unknown
4:56 AM 36.0 °F 26.0 °F 30.9 °F 82% 30.27 in - North 17.3 mph - N/A   Unknown
5:56 AM 36.0 °F 27.1 °F 30.9 °F 82% 30.28 in - North 13.8 mph - N/A   Unknown
6:56 AM 35.1 °F 25.2 °F 30.9 °F 85% 30.27 in - North 16.1 mph - N/A   Unknown
7:56 AM 35.1 °F 26.4 °F 30.9 °F 85% 30.27 in - North 12.7 mph - N/A   Unknown
8:56 AM 35.1 °F 24.8 °F 30.0 °F 82% 30.27 in - North 17.3 mph - N/A   Unknown
9:56 AM 36.0 °F 26.3 °F 30.9 °F 82% 30.27 in - North 16.1 mph - 0.01 in   Unknown
10:56 AM 37.0 °F 28.1 °F 30.9 °F 79% 30.26 in - North 15.0 mph - N/A   Unknown
11:56 AM 37.0 °F 28.5 °F 32.0 °F 82% 30.25 in - North 13.8 mph - N/A   Unknown
12:56 PM 37.0 °F 30.4 °F 32.0 °F 82% 30.25 in - NNE 9.2 mph - N/A   Unknown
1:56 PM 37.0 °F 28.5 °F 32.0 °F 82% 30.25 in - NNE 13.8 mph - N/A   Unknown
2:56 PM 37.0 °F 28.1 °F 32.0 °F 82% 30.24 in - NNE 15.0 mph - N/A   Unknown
3:56 PM 37.9 °F 29.2 °F 30.9 °F 76% 30.23 in - NNE 15.0 mph - N/A   Unknown
4:56 PM 37.0 °F 27.0 °F 32.0 °F 82% 30.22 in - NW 18.4 mph - N/A   Unknown
5:56 PM 37.0 °F 27.0 °F 30.9 °F 79% 30.22 in - NNW 18.4 mph - N/A   Unknown
6:56 PM 37.0 °F 27.7 °F 32.0 °F 82% 30.22 in - NNW 16.1 mph - N/A   Unknown
7:56 PM 37.0 °F 28.1 °F 32.0 °F 82% 30.22 in - NNW 15.0 mph - N/A   Unknown
8:56 PM 37.0 °F 28.9 °F 32.0 °F 82% 30.21 in - NNW 12.7 mph - N/A   Unknown
9:56 PM 37.0 °F 29.3 °F 33.1 °F 86% 30.21 in - North 11.5 mph - N/A   Unknown
10:56 PM 37.0 °F 29.8 °F 33.1 °F 86% 30.22 in - NNW 10.4 mph - N/A   Unknown
11:56 PM 37.0 °F 31.0 °F 33.1 °F 86% 30.22 in - North 8.1 mph - N/A   Unknown